MSG 3 DEB (BAFFLE COVER), 40872

Orbit data source: Space-Track

MSG 3 DEB (BAFFLE COVER), 40872 is space debris in GEO originally from a launch on Thu, 05 Jul 2012 UTC launched from the French Guiana (FRGUI). Debris objects in space refer to the collection of defunct objects orbiting the Earth. Examples of debris include non-operational satellites, rocket bodies, and fragments generated from explosions, collisions, or faulty payload assembly.

Not visible in the next 10 days
Identifier
40872, 2012-035F
Orbit
GEO
Country
Flag of UnknownUnknown / EUME
Related business
Manufacturer
SENER
Mission
Spacecraft
Bus & Motor
MSG COVER, Unknown motor
Mass
~0 kg wet, ~4 kg dry
Launch date (UTC)
2012-07-05 (14 years ago)
Launch vehicle
Unknown
Launch site
French Guiana (FRGUI)
Object type
Payload
Rocket body
Debris
Shape & HBR
Box, 0.6 m
Radar Cross Section
0.435 m²

Expand to show TLE details & history
Last TLE update: 11 months ago

TLE from 11 months ago
0 MSG 3 DEB (BAFFLE COVER)
1 40872U 12035F   25080.28592477 -.00000028  00000-0  00000-0 0  9992
2 40872   8.5285  62.2472 0095423 218.0063 141.3864  1.02741301 43112
Epoch: 2025-03-21T06:51Z
TLE epoch observation values (Epoch: 2025-03-21T06:51:43.900Z)
Latitude
Longitude
140.33384°
Altitude
35,417.016 km
Speed
3.077 km/s
True Right ascension
04h 09m 15s
True Declination
0° 00' 00"
Sunlit
Object was in daylight at epoch
Visualization orbit readout
Latitude
Unknown
Longitude
Unknown
Altitude
Unknown
Speed
Unknown
Apparent Right ascension
Unknown
Apparent Declination
Unknown
Sunlit
N/A
Visualization observer readout
Local Sidereal Time
12:02:21
Azimuth
Unknown
Elevation
Unknown
Doppler factor
Unknown
Orbital elements
Apogee altitude
35,505.141 km
Perigee altitude
34,713.371 km
Semi-major axis
41,487.393 km
Eccentricity
0.00954
Inclination
8.5285°
RAAN
62.2472°
Arg. of periapsis
218.0063°
True anomaly
142.06248°
Mean anomaly
141.3864°
Eccentric anomaly
141.72507°
Mean motion
0.25684 °/min
Orbital period
1,401.63 mins
BSTAR
0
Loading maneuver chart data...
Computing Atmospheric mass density...
Loading historical data...
Loading historical data...
Loading historical data...
Loading historical data...
Loading historical data...
Loading historical data...
Loading historical data...

Documentation

Showing up to 5 results
|